Flag for Philippines Weather past 2 weeks in Makati, Philippines

Now
84 °F

More clouds than sun.


Feels Like: 90 °F
Forecast: 81 / 93 °F
Wind: 22 mph from Northeast

Location: National Airport

Current Time: Apr 21, 2015 at 5:28:25 PM

Latest Report: Apr 21, 2015 at 3:00 PM


Visibility: 6 mi

Pressure: 29.83 "Hg

Humidity: 66%

Dew point: 72 °F

Location of MakatiLocation

Historic Weather in Makati — Graph

°F

Makati temperature yesterday

Maximum temperature yesterday: 93 °F (at 11:00 AM)
Minimum temperature yesterday: 82 °F (at 3:00 AM)
Average temperature yesterday: 87 °F

Past Weeks' High & Low Weather Summary

 TemperatureHumidityPressure
High97 °F (Apr 19, 3:00 PM)89% (Apr 13, 5:00 AM)29.98 "Hg (Apr 13, 5:00 AM)
Low75 °F (Apr 10, 5:00 AM)41% (Apr 7, 1:00 PM)29.74 "Hg (Apr 20, 4:00 PM)
Average85 °F64%29.88 "Hg
* Reported Apr 6 3:00 PM — Apr 21 3:00 PM, Makati, Weather by CustomWeather, © 2015

Note: Actual official high and low records may vary slightly from our data, if they occured in-between our weather recording intervals... More about our weather records

Advertising

Makati weather history for previous 24 hours

 ConditionsComfort  
Time TempWeatherWind HumidityBarometerVisibility
3:00 PM
Tue, Apr 21
84 °FMore clouds than sun.22 mph66%29.83 "Hg6 mi
2:00 PM93 °FScattered clouds.6 mph59%29.80 "HgN/A
1:00 PM93 °FScattered clouds.10 mph59%29.83 "HgN/A
12:00 PM93 °FBroken clouds.8 mph56%29.86 "HgN/A
11:00 AM90 °FBroken clouds.9 mph67%29.89 "HgN/A
10:00 AM91 °FBroken clouds.6 mph59%29.89 "HgN/A
9:00 AM90 °FBroken clouds.5 mph67%29.89 "HgN/A
8:00 AM88 °FBroken clouds.3 mph66%29.89 "HgN/A
7:00 AM84 °FBroken clouds.3 mph79%29.89 "HgN/A
6:00 AM82 °FBroken clouds.1 mph84%29.86 "HgN/A
5:00 AM82 °FPassing clouds.2 mph84%29.83 "HgN/A
4:00 AM82 °FPassing clouds.3 mph89%29.83 "HgN/A
3:00 AM82 °FPassing clouds.No wind84%29.83 "HgN/A
2:00 AM84 °FPassing clouds.3 mph79%29.83 "HgN/A
1:00 AM84 °FPassing clouds.3 mph74%29.86 "HgN/A
12:00 AM84 °FPassing clouds.5 mph74%29.86 "HgN/A
11:00 PM
Mon, Apr 20
86 °FPassing clouds.2 mph66%29.86 "HgN/A
10:00 PM86 °FPartly cloudy.3 mph66%29.86 "HgN/A
9:00 PM86 °FPassing clouds.7 mph66%29.83 "HgN/A
8:00 PM86 °FPassing clouds.8 mph66%29.83 "Hg0 mi
7:00 PM86 °FPassing clouds.10 mph70%29.80 "HgN/A
6:00 PM86 °FScattered clouds.13 mph70%29.80 "HgN/A
5:00 PM90 °FScattered clouds.15 mph59%29.77 "HgN/A
Weather by CustomWeather, © 2015

See weather overviewHow to use our weather pages